Location: Duac?
(36.9744°N, 30.6500°E)
Time: 06:03:45
(UTC+00:00)

ASTRO E2 - Pass Details

Date: 05 August 2024
Orbit: 396 x 402 km, 31.4° (Epoch: 10 September)

Event Time Altitude Azimuth Distance (km) Brightness Sun altitude
Rises 17:11:23 0° 250° (WSW) 2,327 6.8 -2.9°
Reaches altitude 10° 17:13:40 10° 239° (WSW) 1,458 5.5 -3.3°
Maximum altitude 17:16:36 29° 176° (S) 761 3.3 -3.9°
Drops below altitude 10° 17:19:31 10° 114° (ESE) 1,440 4.3 -4.4°
Enters shadow 17:20:25 - 108° (ESE) 1,776 4.7 -4.6°
